Regional Weather Roundup
Issued by NWS

Home | Current Version | Previous Version | Graphics & Text | Print | Product List | Glossary On
Versions: 1 2 3 4 5 6 7 8 9 10 11 12 13 14 15 16 17 18 19 20 21 22 23 24 25 26 27 28 29 30 31 32 33 34 35 36 37 38 39 40 41 42 43 44 45 46 47 48 49 50
903
ASUS45 KPSR 221510
RWRAZ

ARIZONA HOURLY REGIONAL WEATHER ROUNDUP
NATIONAL WEATHER SERVICE PHOENIX AZ
800 AM MST FRI MAY 22 2015

NOTE: FAIR INDICATES FEW OR NO CLOUDS BELOW 12,000 FEET WITH NO
SIGNIFICANT WEATHER AND/OR OBSTRUCTIONS TO VISIBILITY.

AZZ001>003-036-221600-
NORTHWEST ARIZONA

CITY           SKY/WX    TMP DP  RH WIND       PRES   REMARKS
BULLHEAD CITY  CLOUDY    68  39  34 SW13      29.85S
KINGMAN        PTSUNNY   62  30  29 SW6       29.90S
$$

AZZ004>008-015-016-018-221600-
NORTH CENTRAL ARIZONA

CITY           SKY/WX    TMP DP  RH WIND       PRES   REMARKS
GRAND CANYON   MOSUNNY   49  33  54 S7        30.02S
WILLIAMS       PTSUNNY   46  37  71 SE13      30.08S
PRESCOTT       MOSUNNY   54  40  59 SE15      29.97S
FLAGSTAFF      PTSUNNY   46  35  65 SW9       30.04S
PAYSON         CLOUDY    54  25  32 CALM      30.03R
$$

AZZ009>014-017-221600-
NORTHEAST ARIZONA

CITY           SKY/WX    TMP DP  RH WIND       PRES   REMARKS
WINSLOW        MOSUNNY   54  31  41 E3        30.00F
SAINT JOHNS    CLOUDY    57  27  31 E8        30.02S
WINDOW ROCK    MOSUNNY   51  32  48 CALM      30.08S
SHOW LOW       CLOUDY    50  25  37 S5        30.05F
$$

AZZ023-221600-
GREATER PHOENIX AREA

CITY           SKY/WX    TMP DP  RH WIND       PRES   REMARKS
PHOENIX        CLOUDY    69  40  34 SE8       29.88S
BUCKEYE        MOSUNNY   68  41  37 S6        29.91R
GLENDALE       PTSUNNY   70  41  35 SE6       29.91R
LUKE AFB       MOSUNNY   70  43  37 S5        29.88R
DEER VALLEY    PTSUNNY   68  39  34 SE7       29.90R
SCOTTSDALE     PTSUNNY   68  40  35 SE5       29.91R
MESA-FALCON    PTSUNNY   66  34  30 SE9       29.90R
MESA-GATEWAY   PTSUNNY   64  37  36 SE9       29.92R
CHANDLER       PTSUNNY   68  41  37 SE9       29.90R
$$

AZZ027-028-221600-
SOUTHWEST MARICOPA COUNTY AND PINAL COUNTY

CITY           SKY/WX    TMP DP  RH WIND       PRES   REMARKS
CASA GRANDE    CLOUDY    66  37  34 S6        29.90S
GILA BEND      PTSUNNY   64  39  39 SW16      29.91R HAZE
$$

AZZ503-504-507>509-221600-
SOUTHEAST ARIZONA

CITY           SKY/WX    TMP DP  RH WIND       PRES   REMARKS
TUCSON         SUNNY     67  27  22 S9        29.98R
DAVIS-MONTHAN  MOSUNNY   66  27  23 S8        29.96R
RYAN FIELD       N/A     70  30  23 S6        29.96S
NOGALES        SUNNY     65  24  21 S8        30.02R
SIERRA VISTA   SUNNY     64  13  13 VRB5      30.03S
DOUGLAS        SUNNY     67  24  19 S18       30.03S
SAFFORD        SUNNY     68  29  23 E12       29.96S
$$

AZZ020-021-025-026-031-221600-
SOUTHWEST ARIZONA

CITY           SKY/WX    TMP DP  RH WIND       PRES   REMARKS
YUMA           SUNNY     68  41  37 W21G30    29.93R
$$

CAZ031-033-041-043-047-048-061-221600-
SOUTHERN CALIFORNIA

CITY           SKY/WX    TMP DP  RH WIND       PRES   REMARKS
DOWNTOWN L.A.  CLOUDY    60  51  72 CALM      29.99S
L.A. AIRPORT   PTSUNNY   58  50  75 W15       30.01R
SAN DIEGO      PTSUNNY   62  50  64 NW9       30.05R
BURBANK        CLOUDY    58  50  75 S5        29.99R
ONTARIO        CLOUDY    56  48  74 SW12      30.00S
RIVERSIDE      CLOUDY    57  47  69 W7        30.01R
PALM SPRINGS   PTSUNNY   69  40  34 N9        29.90R
EL CENTRO NAS  MOSUNNY   67  41  38 W26       29.94S
IMPERIAL       SUNNY     66  43  43 W20G29    29.92R
BLYTHE         SUNNY     67  45  45 SW8       29.88R
NEEDLES        PTSUNNY   69  40  34 SW8       29.85R
$$

NVZ020-UTZ003-221600-
SOUTHERN NEVADA-UTAH

CITY           SKY/WX    TMP DP  RH WIND       PRES   REMARKS
LAS VEGAS      PTSUNNY   62  40  44 S14       29.82R
SALT LAKE CITY CLOUDY    56  43  61 S6        29.91S
$$

NMZ009-TXZ055-221600-
NEW MEXICO-WEST TEXAS

CITY           SKY/WX    TMP DP  RH WIND       PRES   REMARKS
ALBUQUERQUE    PTSUNNY   56  45  66 CALM      30.11F
EL PASO        CLOUDY    62  54  74 SE8       30.08S
$$


........................KEY........................
SKY/WX - SKY CONDITION/WEATHER
TMP    - TEMPERATURE IN FAHRENHEIT
DP     - DEW POINT IN FAHRENHEIT
RH     - RELATIVE HUMIDITY IN PERCENT
WIND   - DIRECTION AND SPEED IN MILES PER HOUR (MPH)
VRB    - VARIABLE WIND DIRECTION
PRES   - MEAN SEA LEVEL PRESSURE IN INCHES OF MERCURY
         F - FALLING PRESSURE   R - RISING PRESSURE
         S - STEADY PRESSURE
VSB    - VISIBILITY IN MILES
HX     - HEAT INDEX IN FAHRENHEIT
WCI    - WIND CHILL INDEX IN FAHRENHEIT
TC     - TEMPERATURE IN CELSIUS WHICH IS ALSO KNOWN AS
         TEMPERATURE IN CENTIGRADE
AFB    - AIR FORCE BASE
         LUKE AFB IS LUKE AIR FORCE BASE
         DAVIS-MONTHAN IS DAVIS-MONTHAN AIR FORCE BASE
NAS    - NAVAL AIR STATION
         EL CENTRO NAS IS EL CENTRO NAVAL AIR STATION
N/A    - NOT AVAILABLE




USA.gov is the U.S. government's official web portal to all federal, state and local government web resources and services.